Weather History for Nueva Ocotepeque, Honduras

Change the Weather History Date:

Saturday, August 17, 2013

  Actual Average (MHTG) Record (MHTG)
Temperature  
Mean Temperature 76 °F -  
Max Temperature 86 °F 82 °F 93 °F (1999)
Min Temperature 67 °F 63 °F 62 °F (1999)
Cooling Degree Days 12    
Growing Degree Days 26 (Base 50)    
Moisture  
Dew Point 66 °F    
Average Humidity 68    
Maximum Humidity 100    
Minimum Humidity 36    
Precipitation  
Precipitation 0.71 in - - ()
Sea Level Pressure  
Sea Level Pressure 29.87 in    
Wind  
Wind Speed 3 mph ()    
Max Wind Speed 12 mph    
Max Gust Speed -    
Visibility 6.4 miles    
Events Thunderstorm    
Averages and records for this station are not official NWS values.
T = Trace of Precipitation, MM = Missing Value Source: Averaged Metar Reports

Daily Weather History Graph

Daily Weather History Graph

Search for Another Location

Airport:

Trip Planner

Search our weather history database for the weather conditions in past years. The results will help you decide how hot, cold, wet, or windy it might be!

Date:

Astronomy

Aug. 17, 2013 Rise Set
Actual Time 5:37 AM CST 6:11 PM CST
Civil Twilight 5:15 AM CST 6:33 PM CST
Nautical Twilight 4:49 AM CST 6:59 PM CST
Astronomical Twilight 4:23 AM CST 7:25 PM CST
Moon 3:11 PM CST (8/17) 1:57 AM CST (8/17)
Length of Visible Light 13h 18m
Length of Day
12h 34m
Waxing Gibbous, 85% of the Moon is Illuminated
Aug 17
Waxing Gibbous
Aug 20
Full
Aug 28
Last Quarter
Sep 5
New
Sep 12
First Quarter

Hourly Weather History & Observations

Time (CST) Temp. Heat Index Dew Point Humidity Pressure Visibility Wind Dir Wind Speed Gust Speed Precip Events Conditions
12:58 AM 71.8 °F - 69.4 °F 92% 29.97 in 6.2 mi Calm Calm - N/A   Overcast
1:58 AM 71.1 °F - 69.3 °F 94% 29.84 in 6.2 mi SE 5.8 mph - N/A   Mostly Cloudy
2:58 AM 70.0 °F - 69.1 °F 97% 29.83 in 6.2 mi WNW 1.2 mph - N/A   Mostly Cloudy
3:58 AM 70.7 °F - 68.9 °F 94% 29.84 in 6.2 mi North 2.3 mph - N/A   Overcast
4:58 AM 69.3 °F - 68.9 °F 99% 29.86 in 6.2 mi Calm Calm - N/A   Mostly Cloudy
5:58 AM 70.2 °F - 67.8 °F 92% 29.87 in 6.2 mi West 2.3 mph - N/A   Clear
6:00 AM 68 °F - 67 °F 98%  in 6 mi Calm Calm - -   Mist
6:58 AM 71.2 °F - 69.1 °F 93% 29.89 in 6.2 mi West 1.2 mph - N/A   Clear
7:58 AM 76.1 °F - 69.3 °F 79% 29.88 in 6.2 mi WNW 3.5 mph - N/A   Clear
8:50 AM 80.6 °F 83.2 °F 68.0 °F 65% 30.01 in 6.2 mi NNW 8.1 mph - N/A   Light Drizzle
8:58 AM 80.2 °F 83.1 °F 68.7 °F 68% 29.89 in 6.2 mi Variable 5.8 mph - 0.00 in   Light Drizzle
8:59 AM 80.6 °F 83.2 °F 68.0 °F 65% 30.01 in 6.2 mi NW 5.8 mph - N/A   Clear
9:00 AM 77 °F - 70 °F 73%  in 9 mi North 4.6 mph - -   Haze
9:58 AM 81.5 °F 84.4 °F 68.4 °F 64% 29.88 in 6.2 mi WNW 4.6 mph - 0.00 in   Scattered Clouds
10:32 AM 84.2 °F 87.3 °F 68.0 °F 58% 29.99 in 6.2 mi Variable 4.6 mph - N/A   Light Drizzle
10:34 AM 84.2 °F 87.3 °F 68.0 °F 58% 29.99 in 6.2 mi Variable 5.8 mph - N/A   Partly Cloudy
10:58 AM 85.5 °F 88.5 °F 67.6 °F 55% 29.86 in 6.2 mi Variable 1.2 mph - 0.00 in   Scattered Clouds
11:58 AM 86.9 °F 89.3 °F 66.2 °F 50% 29.84 in 6.2 mi Variable 3.5 mph - N/A   Mostly Cloudy
12:00 PM 83 °F - 70 °F 57%  in 9 mi South 6.9 mph - -   Haze
12:58 PM 90.9 °F 90.6 °F 60.4 °F 36% 29.80 in 6.2 mi North 11.5 mph - N/A   Mostly Cloudy
1:58 PM 88.7 °F 89.4 °F 62.8 °F 42% 29.78 in 6.2 mi North 4.6 mph - N/A   Overcast
2:58 PM 88.2 °F 89.3 °F 63.5 °F 44% 29.78 in 6.2 mi NW 8.1 mph - N/A   Mostly Cloudy
3:58 PM 88.7 °F 88.8 °F 61.5 °F 40% 29.76 in 6.2 mi East 8.1 mph - N/A   Overcast
4:58 PM 85.6 °F 85.9 °F 61.3 °F 44% 29.79 in 6.2 mi East 8.1 mph - N/A   Scattered Clouds
5:58 PM 83.3 °F 84.1 °F 62.1 °F 49% 29.83 in 6.2 mi East 5.8 mph - N/A   Clear
6:00 PM 68 °F - 68 °F 100%  in 6 mi North 4.6 mph - - Thunderstorm Thunderstorm
6:58 PM 81.3 °F 82.3 °F 62.1 °F 52% 29.85 in 6.2 mi Variable 2.3 mph - N/A   Mostly Cloudy
7:58 PM 78.1 °F - 62.8 °F 59% 29.86 in 6.2 mi ESE 3.5 mph - N/A   Mostly Cloudy
8:58 PM 77.2 °F - 62.2 °F 60% 29.88 in 6.2 mi ESE 10.4 mph - N/A   Partly Cloudy
9:58 PM 74.8 °F - 62.8 °F 66% 29.88 in 6.2 mi ENE 4.6 mph - N/A   Clear
10:58 PM 74.7 °F - 64.0 °F 69% 29.88 in 6.2 mi East 5.8 mph - N/A   Mostly Cloudy
11:58 PM 72.3 °F - 64.0 °F 75% 29.88 in 6.2 mi North 1.2 mph - N/A   Scattered Clouds